NOAA 16 DEB, 41072

Orbit data source: Space-Track

NOAA 16 DEB, 41072 is space debris in SSO originally from a launch on Thu, 21 Sep 2000 UTC launched from the Air Force Western Test Range (AFWTR). Debris objects in space refer to the collection of defunct objects orbiting the Earth. Examples of debris include non-operational satellites, rocket bodies, and fragments generated from explosions, collisions, or faulty payload assembly.

Loading next visibility...
NOAA 16 DEB details
Identifier
41072, 2000-055AF
Orbit
SSO
Last TLE update21 hours ago
Origin
Flag of USNOAA (US)
ManufacturerUnknown
MissionSpacecraft
Bus & MotorUnknown
MassUnknown
Launch date (UTC)
2000-09-21 (24 years ago)
Launch vehicleUnknown
Launch site
Air Force Western Test Range (AFWTR)
Object type
Payload
Rocket body
Debris
Shape & HBRUnknown
Radar Cross SectionSmall (<0.1 m²)

Expand to show TLE details & history

TLE from 21 hours ago
0 NOAA 16 DEB
1 41072U 00055AF  24360.58993972  .00000588  00000-0  70751-3 0  9995
2 41072  98.8503 111.8594 0285584  63.8935 299.1294 13.54257970448470
Epoch: 2024-12-25T14:09Z
Definitive object data (Epoch: 2024-12-25T14:09:30.791Z)
Latitude-0.00002°
Longitude164.8996°
Altitude960.803 km
Speed7.42 km/s
True Right ascension07h 27m 26s
True Declination0° 00' 00"
Sunlit
Object was in full shadow at TLE epoch
Visualization TLE readout
Latitude-45.89013°
Longitude-23.52733°
Altitude1,278.659 km
Speed7.115 km/s
Apparent Right ascension20h 25m 50s
Apparent Declination-45° 36' 50"
Sunlit
Object is in daylight
Visualization observer readout
Local Sidereal Time10:06:45
Azimuth115.483° SE
Elevation-70.716°
Doppler factor1
Orbital elements
Apogee altitude1,266.131 km
Perigee altitude841.637 km
Semi-major axis7,432.021 km
Eccentricity0.0285584
Inclination98.8503°
RAAN111.8594°
Arg. of periapsis63.8935°
True anomaly296.22149°
Mean anomaly299.1294°
Eccentric anomaly297.68039°
Mean motion3.38753 °/min
BSTAR0.00070751
Orbital period106.27 mins
Loading maneuver chart data...
Loading historical data...
Loading historical data...
Loading historical data...
Loading historical data...
Loading historical data...
Loading historical data...
Loading historical data...

NOAA 16 DEB Visibility forecast

Observer location: undefined°, undefined

Span
Click to sort rows by Start time (UTC) header in descending order
Start Az.
Max El. time (UTC)
Max El. Az.
Max El.
End time (UTC)
End Az.
7 mins2024-12-26 19:08:30.856Z55.848° ENE2024-12-26 19:11:30.856Z87.862° E17.467°2024-12-26 19:15:30.856Z129.767° SE
11 mins2024-12-26 20:52:30.856Z5.328° NNE2024-12-26 20:57:30.856Z270.004° WNW42.232°2024-12-26 21:03:30.856Z206.954° SW
8 mins2024-12-27 07:04:30.856Z137.602° SSE2024-12-27 07:08:30.856Z62.366° ENE36.694°2024-12-27 07:12:30.856Z1.24° NNE
5 mins2024-12-27 08:51:30.856Z239.009° WSW2024-12-27 08:53:30.856Z266.189° W18.648°2024-12-27 08:56:30.856Z304.69° NW
|